sat.trackr.live / text

‹ back to catalog

STARLINK-31646

NORAD 59265 · 2024-050M

PAYLOAD ACTIVE UNKNOWN

§ Identity

Operator
Country
US
Launch date
2024-03-19
Launch site
AFWTR
Launch vehicle
Mass (kg)
RCS (m²)

Purposes: comms

External: N2YO · Heavens-Above · Gunter

§ Orbital elements

Epoch: 2026-09-20T18:30:42.831648Z

Period
93.85 min
Inclination
53.1609°
Eccentricity
0.0001614
Mean motion
15.34394621 rev/d
Perigee alt
461.6 km
Apogee alt
463.8 km
Semi-major
6,840.9 km
B*
3.5720e-5
RAAN
352.2181°
Arg perigee
100.2281°
Mean anomaly
259.8904°
Rev number
14,045

§ Raw data

STARLINK-316461 59265U 24050M   26263.77132907  .00000830  00000+0  35720-4 0  99942 59265  53.1609 352.2181 0001614 100.2281 259.8904 15.34394621140450

JSON: /api/v1/satellites/59265 · /tle

For live sub-satellite position, see the globe view (requires WebGL).

§ Visibility from observer

Set your observer location to see the next 7 days of passes ≥ 10°. The values pass through the URL so the page stays shareable.

No JS? Fill the form by hand. The geolocation button needs JavaScript.